Home > Weather > Wichita > Past weeks

Flag for U.S.A. Weather for the Past 2 Weeks in Wichita, Kansas, U.S.A.

Now
30 °F

Passing clouds.


Feels Like: 21 °F
Forecast: 28 / 42 °F
Wind: 10 mph from Northwest

Location: Wichita Mid-Continent Airport

Current Time: Feb 9, 2016 at 6:31:36 AM

Latest Report: Feb 9, 2016 at 4:53 AM


Visibility: 10 mi

Pressure: 30.19 "Hg

Humidity: 61%

Dew point: 18 °F

Location of WichitaLocation

Historic Weather in Wichita — Graph

°F

Wichita Temperature Yesterday

Maximum temperature yesterday: 45 °F (at 1:53 PM)
Minimum temperature yesterday: 32 °F (at 6:53 AM)
Average temperature yesterday: 38 °F

High & Low Weather Summary for the Past Weeks

 TemperatureHumidityPressure
High70 °F (Jan 29, 1:53 PM)100% (Feb 2, 3:53 AM)30.41 "Hg (Feb 2, 3:53 AM)
Low18 °F (Feb 4, 7:53 AM)19% (Feb 4, 3:53 PM)29.34 "Hg (Feb 2, 4:53 AM)
Average40 °F59%30.03 "Hg
* Reported Jan 25 4:53 AM — Feb 9 4:53 AM, Wichita, Weather by CustomWeather, © 2016

Note: Actual official high and low records may vary slightly from our data, if they occured in-between our weather recording intervals... More about our weather records

Advertising

Wichita Weather History for the Previous 24 Hours

 ConditionsComfort  
Time TempWeatherWind HumidityBarometerVisibility
4:53 AM
Tue, Feb 9
30 °FPassing clouds.10 mph61%30.19 "Hg10 mi
3:53 AM30 °FPassing clouds.9 mph59%30.18 "Hg10 mi
2:53 AM31 °FPassing clouds.13 mph59%30.18 "Hg10 mi
1:53 AM31 °FClear.13 mph59%30.19 "Hg10 mi
12:53 AM29 °FPassing clouds.10 mph66%30.21 "Hg10 mi
11:53 PM
Mon, Feb 8
32 °FPassing clouds.13 mph59%30.22 "Hg10 mi
10:53 PM33 °FPassing clouds.15 mph54%30.22 "Hg10 mi
9:53 PM34 °FPassing clouds.14 mph54%30.24 "Hg10 mi
8:53 PM34 °FPassing clouds.16 mph54%30.24 "Hg10 mi
7:53 PM35 °FPassing clouds.14 mph48%30.24 "Hg10 mi
6:53 PM38 °FPassing clouds.15 mph39%30.25 "Hg10 mi
5:53 PM41 °FScattered clouds.26 mph30%30.24 "Hg10 mi
4:53 PM43 °FPartly sunny.29 mph28%30.24 "Hg10 mi
3:53 PM44 °FScattered clouds.33 mph26%30.22 "Hg10 mi
2:53 PM45 °FScattered clouds.36 mph25%30.21 "Hg10 mi
1:53 PM45 °FPassing clouds.37 mph24%30.23 "Hg10 mi
12:53 PM44 °FPassing clouds.29 mph28%30.24 "Hg10 mi
11:53 AM42 °FPassing clouds.36 mph29%30.27 "Hg10 mi
10:53 AM41 °FPassing clouds.33 mph32%30.27 "Hg10 mi
9:53 AM39 °FScattered clouds.25 mph38%30.26 "Hg10 mi
8:53 AM37 °FPassing clouds.29 mph41%30.23 "Hg10 mi
7:53 AM33 °FPassing clouds.22 mph49%30.23 "Hg10 mi
6:53 AM32 °FPassing clouds.22 mph54%30.22 "Hg10 mi
Weather by CustomWeather, © 2016

See weather overviewHow to use our weather pages